[[{"header":{"parameterUnit":"m.s-1","parameterCategory":1,"la1":30.2991,"la2":30.254,"lo1":-89.0895,"lo2":-89.0444,"dy":0.0017,"dx":0.0017,"nx":28,"ny":28,"refTime":"2025-01-10T09:00:00:Z","depth":0,"parameterNumber":2,"parameterNumberName":"U-component_of_WINDS"},"data":[0,0,0,0,0,0,0,0,0,0,0,0,0,0,0,0,0,0,0,0,0,0,0,0,0,0,0,0,0,0,0,0,0,0,0,0,0,0,0,0,0,0,0,0,0,0,0,0,0,0,0,0,0,0,0,0,0,0,-9.416,-9.4161,0,-9.4249,-9.425,-9.4251,-9.4162,-9.4159,-9.4155,-9.4152,-9.4238,-9.4244,-9.4249,0,0,0,0,0,0,0,0,0,0,0,0,0,-9.3908,-9.3913,-9.416,-9.4161,-9.4162,-9.4249,-9.425,-9.4252,-9.4163,-9.4159,-9.4154,-9.415,-9.4236,-9.4243,-9.425,0,0,0,0,0,0,0,0,0,0,0,0,0,-9.4009,-9.3915,-9.416,-9.4129,-9.4127,-9.4249,-9.425,-9.4252,-9.4164,-9.4158,-9.4153,-9.4148,-9.4234,-9.4242,-9.425,-9.4406,0,0,-9.4276,-9.428,0,0,0,0,0,0,0,0,-9.4004,-9.4019,-9.4132,-9.4131,-9.4129,-9.4189,-9.4193,-9.4304,-9.4165,-9.415,-9.4152,-9.4146,-9.4226,-9.4235,-9.4263,-9.441,-9.4414,-9.4277,-9.4282,-9.4285,-9.4288,0,0,0,0,0,0,0,-9.3997,-9.4014,-9.4195,-9.4134,-9.4132,-9.4109,-9.4117,-9.4214,-9.4216,-9.415,-9.4144,-9.4156,-9.4224,-9.4255,-9.4264,-9.4415,-9.4276,-9.4284,-9.4289,-9.4292,-9.4694,-9.47,0,0,0,0,0,0,-9.3994,-9.4009,-9.4192,-9.4198,-9.4052,-9.4117,-9.4127,-9.4175,-9.4214,-9.4216,-9.4161,-9.4152,-9.4243,-9.4254,-9.4267,-9.4449,-9.4285,-9.4293,-9.4298,-9.4689,-9.4696,-9.4702,0,0,0,0,0,0,-9.3989,-9.4011,-9.4189,-9.4102,-9.4123,-9.4127,-9.4182,-9.418,-9.421,-9.4222,-9.4222,-9.4192,-9.4239,-9.4255,-9.4372,-9.4451,-9.4297,-9.4304,-9.4682,-9.4691,-9.4699,-9.4818,0,0,0,0,0,0,-9.3982,-9.401,-9.407,-9.4104,-9.4128,-9.4294,-9.4187,-9.4185,-9.4226,-9.4215,-9.4251,-9.4252,-9.4237,-9.436,-9.4381,-9.446,-9.4311,-9.4675,-9.4686,-9.4696,-9.4806,-9.4829,-9.4848,0,0,0,0,0,-9.3973,-9.4099,-9.4073,-9.4096,-9.4203,-9.4299,-9.4312,-9.4293,-9.4232,-9.4292,-9.43,-9.4251,-9.4441,-9.4373,-9.4395,-9.4478,-9.4669,-9.4683,-9.4695,-9.4797,-9.4825,-9.4848,0,0,0,0,0,0,-9.4071,-9.4103,-9.4074,-9.4215,-9.4256,-9.4284,-9.4358,-9.4323,-9.438,-9.4367,-9.4339,-9.4348,-9.4472,-9.4488,-9.4412,-9.463,-9.4545,-9.4563,-9.4615,-9.4641,-9.4662,-9.4653,-9.4318,0,0,0,0,0,-9.411,-9.4187,-9.421,-9.4331,-9.4353,-9.4353,-9.4394,-9.4376,-9.4416,-9.4431,-9.4448,-9.4487,-9.4555,-9.46,-9.4663,-9.4811,-9.4815,-9.4878,-9.4899,-9.4917,-9.493,-9.5007,-9.5034,-9.4744,-9.4744,-9.4743,0,0,-9.4189,-9.4216,-9.4265,-9.4352,-9.4381,-9.4459,-9.4367,-9.4454,-9.4511,-9.4444,-9.4555,-9.457,-9.4611,-9.4744,-9.4803,-9.476,-9.5013,-9.4933,-9.4947,-9.4951,-9.5023,-9.5051,-9.5075,-9.4752,-9.4751,-9.4749,0,0,-9.4372,-9.4402,-9.4505,-9.4537,-9.4583,-9.4582,-9.4608,-9.4643,-9.4649,-9.4762,-9.4713,-9.478,-9.4899,-9.493,-9.4961,-9.516,-9.5116,-9.5182,-9.5289,-9.5364,-9.5387,-9.5407,-9.5474,-9.5499,-9.5197,-9.5197,-9.5197,0,-9.4463,-9.458,-9.4563,-9.4653,-9.4692,-9.4638,-9.4742,-9.4773,-9.4837,-9.4864,-9.4817,-9.4964,-9.4989,-9.5126,-9.5175,-9.5204,-9.523,-9.5174,-9.5386,-9.5406,-9.5424,-9.5487,-9.5513,-9.5205,-9.5204,-9.5203,-9.5202,0,-9.4689,-9.4772,-9.485,-9.4914,-9.4963,-9.506,-9.5055,-9.5106,-9.5085,-9.5089,-9.5203,-9.5232,-9.5299,-9.5332,-9.5312,-9.5468,-9.5439,-9.539,-9.5302,-9.5459,-9.5518,-9.5543,-9.5215,-9.5212,-9.521,-9.5208,0,0,-9.493,-9.4987,-9.5015,-9.5044,-9.5092,-9.5155,-9.525,-9.5318,-9.536,-9.5408,-9.5484,-9.5587,-9.5542,-9.5578,-9.5562,-9.5629,-9.578,-9.557,-9.5571,-9.5604,-9.5949,-9.5982,-9.6011,-9.5754,-9.5759,-9.5763,-9.5944,0,-9.5112,-9.5276,-9.5264,-9.5419,-9.5493,-9.5446,-9.5528,-9.5566,-9.5573,-9.5637,-9.5645,-9.5717,-9.5653,-9.5674,-9.5739,-9.5748,-9.5848,-9.5736,-9.5821,-9.5824,-9.5807,-9.6042,-9.6078,-9.6247,-9.5968,-9.5972,-9.5975,0,-9.5343,-9.54,-9.5563,-9.56,-9.5631,-9.5705,-9.5766,-9.5829,-9.5871,-9.5872,-9.5914,-9.5887,-9.598,-9.5896,-9.6023,-9.5947,-9.5982,-9.5993,-9.5999,-9.6001,-9.5905,-9.6046,-9.6301,-9.6325,-9.6012,-9.6009,-9.6006,0,-9.5498,-9.5616,-9.5727,-9.5754,-9.5802,-9.5854,-9.5876,-9.5914,-9.5956,-9.601,-9.6036,-9.6101,-9.6134,-9.6184,-9.6175,-9.6115,-9.6304,-9.6219,-9.6304,-9.6304,-9.634,-9.6337,-9.6599,-9.6373,-9.6372,-9.6372,-9.6371,0,-9.5698,-9.5798,-9.5797,-9.5866,-9.5976,-9.5963,-9.6072,-9.6088,-9.6122,-9.6191,-9.6156,-9.6221,-9.6207,-9.6272,-9.6266,-9.6371,-9.6388,-9.6389,-9.6384,-9.6389,-9.6388,-9.6407,-9.6393,-9.6379,-9.6377,-9.6376,-9.6375,0,-9.5886,-9.589,-9.6009,-9.6046,-9.6057,-9.6137,-9.6167,-9.6231,-9.6238,-9.6326,-9.6346,-9.6355,-9.643,-9.6427,-9.6512,-9.6508,-9.6635,-9.662,-9.6621,-9.6616,-9.6699,-9.6689,-9.6978,-9.7013,-9.6769,-9.6771,-9.6773,0,-9.601,-9.6086,-9.6133,-9.6177,-9.6203,-9.6276,-9.6319,-9.631,-9.6356,-9.6411,-9.6467,-9.654,-9.6596,-9.6718,-9.6731,-9.6796,-9.6778,-9.6876,-9.6787,-9.6789,-9.6774,-9.6768,-9.6773,-9.6891,-9.6893,-9.6896,-9.6897,0,-9.6229,-9.6228,-9.6293,-9.6359,-9.6412,-9.6463,-9.651,-9.6548,-9.6544,-9.6598,-9.6675,-9.6719,-9.6807,-9.6878,-9.694,-9.6961,-9.6927,-9.6927,-9.6948,-9.695,-9.6945,-9.6944,-9.6662,-9.6918,-9.6916,-9.6914,-9.6913,-9.6912,-9.6386,-9.6451,-9.6493,-9.6566,-9.6602,-9.6647,-9.6708,-9.6724,-9.6789,-9.686,-9.6851,-9.6936,-9.6977,-9.7058,-9.7085,-9.7151,-9.7116,-9.7149,-9.7156,-9.7163,-9.717,-9.6941,-9.7163,-9.7162,-9.7161,-9.7161,-9.7161,0,-9.6599,-9.6625,-9.6693,-9.676,-9.6818,-9.6787,-9.6837,-9.6886,-9.6962,-9.7004,-9.7062,-9.715,-9.722,-9.724,-9.7307,-9.7355,-9.7341,-9.7372,-9.7365,-9.737,-9.72,-9.7172,-9.7382,-9.7382,-9.7382,-9.7382,-9.7382,-9.7382,-9.6716,-9.6823,-9.6828,-9.6952,-9.6977,-9.7062,-9.7093,-9.7134,-9.7167,-9.7268,-9.7326,-9.734,-9.7373,-9.7442,-9.7504,-9.7508,-9.7532,-9.7569,-9.7566,-9.7405,-9.7382,-9.7361,-9.7334,-9.7575,-9.7576,-9.773,-9.7732,-9.7733]},{"header":{"parameterUnit":"m.s-1","parameterCategory":1,"la1":30.2991,"la2":30.254,"lo1":-89.0895,"lo2":-89.0444,"dy":0.0017,"dx":0.0017,"nx":28,"ny":28,"refTime":"2025-01-10T09:00:00:Z","depth":0,"parameterNumber":3,"parameterNumberName":"V-component_of_WINDS"},"data":[0,0,0,0,0,0,0,0,0,0,0,0,0,0,0,0,0,0,0,0,0,0,0,0,0,0,0,0,0,0,0,0,0,0,0,0,0,0,0,0,0,0,0,0,0,0,0,0,0,0,0,0,0,0,0,0,0,0,5.0267,5.0267,0,5.0286,5.0286,5.0286,5.0098,5.0093,5.0088,5.0083,5.0106,5.0111,5.0117,0,0,0,0,0,0,0,0,0,0,0,0,0,5.0075,5.0079,5.0267,5.0267,5.0267,5.0286,5.0286,5.0286,5.0099,5.0093,5.0086,5.0081,5.0104,5.0111,5.0117,0,0,0,0,0,0,0,0,0,0,0,0,0,5.0132,5.0081,5.0267,5.0176,5.0168,5.0286,5.0286,5.0286,5.01,5.0093,5.0085,5.0078,5.0102,5.011,5.0118,5.0324,0,0,5.0143,5.0147,0,0,0,0,0,0,0,0,5.0129,5.014,5.0189,5.0183,5.0174,5.0181,5.0226,5.0299,5.0102,5.0126,5.0083,5.0074,5.0138,5.0142,5.0163,5.0326,5.0327,5.0144,5.0149,5.0152,5.0155,0,0,0,0,0,0,0,5.0126,5.0138,5.0274,5.019,5.0181,5.0136,5.0136,5.0239,5.0176,5.0124,5.011,5.0115,5.0132,5.0156,5.0162,5.0327,5.0144,5.0151,5.0156,5.0159,5.0663,5.0671,0,0,0,0,0,0,5.0133,5.0136,5.0274,5.0275,5.0132,5.0146,5.0146,5.0187,5.0174,5.0164,5.0121,5.0106,5.0146,5.0153,5.0163,5.0405,5.0152,5.016,5.0165,5.0655,5.0665,5.0674,0,0,0,0,0,0,5.013,5.0147,5.0273,5.0202,5.0214,5.0158,5.0206,5.0191,5.0215,5.0172,5.016,5.0157,5.014,5.0151,5.0286,5.0403,5.0164,5.0171,5.0645,5.0658,5.0669,5.0891,0,0,0,0,0,0,5.0125,5.0147,5.0223,5.0205,5.0219,5.0395,5.0213,5.0197,5.0229,5.0209,5.0202,5.0194,5.0135,5.0275,5.0294,5.041,5.0177,5.0634,5.065,5.0665,5.0873,5.091,5.0941,0,0,0,0,0,5.0119,5.0285,5.0228,5.0246,5.0313,5.0402,5.041,5.0338,5.0239,5.0317,5.029,5.0194,5.0387,5.029,5.031,5.0431,5.0626,5.0646,5.0664,5.0858,5.0903,5.0941,0,0,0,0,0,0,5.032,5.0281,5.0217,5.0382,5.0397,5.037,5.0465,5.0387,5.0431,5.041,5.0319,5.032,5.0471,5.0464,5.0356,5.0631,5.049,5.0514,5.063,5.0672,5.0706,5.0705,5.0184,0,0,0,0,0,5.0383,5.0458,5.042,5.057,5.058,5.0523,5.0558,5.0501,5.0513,5.0519,5.0501,5.0518,5.0582,5.0627,5.0683,5.0871,5.0869,5.0964,5.0999,5.1027,5.1049,5.1151,5.1193,5.0737,5.0736,5.0736,0,0,5.0515,5.0503,5.0556,5.061,5.0614,5.0696,5.0529,5.0621,5.0681,5.0533,5.0659,5.0648,5.0661,5.0824,5.0895,5.0823,5.1175,5.1051,5.1074,5.1081,5.1175,5.1218,5.1257,5.0749,5.0747,5.0745,0,0,5.0797,5.0795,5.092,5.0928,5.0937,5.0898,5.0929,5.0915,5.0902,5.1027,5.0919,5.099,5.1102,5.1116,5.1139,5.143,5.1345,5.1451,5.163,5.173,5.1766,5.1798,5.1904,5.1943,5.1473,5.1474,5.1474,0,5.096,5.1076,5.0994,5.1095,5.1123,5.0993,5.1121,5.1133,5.1162,5.1185,5.1104,5.1244,5.1243,5.141,5.1481,5.1503,5.1537,5.1452,5.1767,5.1798,5.1826,5.1927,5.1967,5.1487,5.1486,5.1484,5.1483,0,5.1278,5.136,5.1461,5.1491,5.1531,5.1645,5.1582,5.1633,5.1573,5.1544,5.1676,5.167,5.1725,5.176,5.1703,5.192,5.1875,5.1783,5.1638,5.1884,5.1977,5.2015,5.1506,5.1501,5.1497,5.1494,0,0,5.1685,5.167,5.1709,5.1722,5.1724,5.1788,5.1897,5.195,5.1996,5.2021,5.2112,5.2212,5.2127,5.2152,5.2096,5.2184,5.2418,5.208,5.2079,5.2145,5.266,5.2731,5.2777,5.2362,5.2369,5.2374,5.266,0,5.1961,5.2145,5.2076,5.2267,5.2344,5.2223,5.2319,5.2332,5.2308,5.2372,5.2345,5.2419,5.2299,5.2315,5.2396,5.2373,5.2521,5.2351,5.2448,5.2453,5.245,5.2825,5.2899,5.3169,5.2695,5.2701,5.2706,0,5.2307,5.2346,5.2544,5.2535,5.2565,5.2652,5.2697,5.2758,5.2772,5.2749,5.278,5.2705,5.2814,5.2671,5.2821,5.2708,5.2744,5.2739,5.2747,5.2754,5.2595,5.2844,5.3253,5.3295,5.2762,5.2757,5.2753,0,5.2587,5.2689,5.2821,5.2836,5.2829,5.2894,5.2894,5.2899,5.2937,5.2977,5.3001,5.3054,5.3083,5.3127,5.307,5.297,5.323,5.3081,5.3216,5.3218,5.3277,5.3274,5.3699,5.3298,5.3298,5.3297,5.3296,0,5.2903,5.3029,5.2947,5.3029,5.3168,5.3089,5.323,5.3217,5.3224,5.3303,5.3202,5.3278,5.3197,5.3268,5.3224,5.3357,5.3371,5.3357,5.3344,5.3367,5.3369,5.339,5.337,5.3308,5.3305,5.3303,5.3301,0,5.3239,5.3188,5.3325,5.3308,5.3307,5.3411,5.3396,5.3473,5.3442,5.3544,5.3563,5.3517,5.3594,5.3541,5.3619,5.3589,5.3765,5.3725,5.3761,5.3751,5.389,5.3878,5.4344,5.4403,5.3963,5.3967,5.3971,0,5.3444,5.3539,5.3532,5.3578,5.3584,5.3658,5.3696,5.3624,5.3668,5.3693,5.3767,5.3835,5.3886,5.4016,5.3991,5.405,5.4012,5.4172,5.4021,5.4042,5.4018,5.4014,5.4024,5.4203,5.4208,5.4212,5.4215,0,5.3815,5.3786,5.3844,5.3896,5.3944,5.398,5.4009,5.4052,5.3979,5.4034,5.4112,5.4152,5.4232,5.4303,5.4353,5.4354,5.4276,5.4263,5.4298,5.4323,5.4341,5.4336,5.3846,5.4253,5.4249,5.4246,5.4244,5.4243,5.4093,5.4173,5.4182,5.4251,5.4265,5.4295,5.4366,5.4346,5.4409,5.4468,5.4421,5.4515,5.453,5.4589,5.4602,5.4675,5.4611,5.4661,5.4674,5.4688,5.4708,5.4328,5.4684,5.4683,5.4682,5.4681,5.468,0,5.4461,5.4461,5.4525,5.4569,5.4625,5.4543,5.4572,5.4624,5.4708,5.4727,5.478,5.4872,5.494,5.4921,5.4983,5.5047,5.5012,5.5066,5.5061,5.5064,5.4761,5.4726,5.5093,5.5093,5.5093,5.5093,5.5093,5.5093,5.4659,5.479,5.4763,5.4902,5.4901,5.4992,5.5016,5.5044,5.506,5.5166,5.5223,5.5209,5.5215,5.5277,5.5338,5.533,5.5359,5.5427,5.5407,5.5125,5.5084,5.5046,5.5012,5.5433,5.5434,5.5703,5.5706,5.5708]}]]